Time,TemperatureF,DewpointF,PressureIn,WindDirection,WindDirectionDegrees,WindSpeedMPH,WindSpeedGustMPH,Humidity,HourlyPrecipIn,Conditions,Clouds,dailyrainin,SoftwareType,DateUTC
2013-01-24 00:04:00,49.7,45.9,30.08,East,90,2.2,2.2,87,0.02,,,0.00,WUHU216HW,2013-01-24 08:04:00,
2013-01-24 00:09:00,49.7,45.9,30.07,East,90,1.6,2.7,87,0.02,,,0.00,WUHU216HW,2013-01-24 08:09:00,
2013-01-24 00:14:00,49.7,45.9,30.07,East,90,1.3,3.1,87,0.02,,,0.00,WUHU216HW,2013-01-24 08:14:00,
2013-01-24 00:19:00,49.7,45.9,30.08,East,90,1.1,3.1,87,0.02,,,0.00,WUHU216HW,2013-01-24 08:19:00,
2013-01-24 00:24:00,49.7,45.9,30.07,ENE,68,1.1,1.8,87,0.03,,,0.01,WUHU216HW,2013-01-24 08:24:00,
2013-01-24 00:29:00,49.7,45.9,30.07,SE,135,2.0,2.0,87,0.03,,,0.01,WUHU216HW,2013-01-24 08:29:00,
2013-01-24 00:34:00,49.5,45.5,30.07,ESE,113,2.2,3.4,86,0.03,,,0.01,WUHU216HW,2013-01-24 08:34:00,
2013-01-24 00:39:00,49.5,45.7,30.07,ESE,113,2.0,3.4,87,0.02,,,0.01,WUHU216HW,2013-01-24 08:39:00,
2013-01-24 00:44:00,49.5,45.7,30.07,East,90,3.6,3.6,87,0.02,,,0.01,WUHU216HW,2013-01-24 08:44:00,
2013-01-24 00:49:00,49.5,45.7,30.07,ESE,113,4.0,5.1,87,0.02,,,0.01,WUHU216HW,2013-01-24 08:49:00,
2013-01-24 00:54:00,49.5,45.7,30.07,ESE,113,6.7,6.7,87,0.02,,,0.01,WUHU216HW,2013-01-24 08:54:00,
2013-01-24 00:59:00,49.5,46.1,30.06,East,90,6.0,8.9,88,0.01,,,0.01,WUHU216HW,2013-01-24 08:59:00,
2013-01-24 01:04:00,49.5,46.1,30.06,East,90,7.6,8.9,88,0.01,,,0.01,WUHU216HW,2013-01-24 09:04:00,
2013-01-24 01:09:00,49.5,46.1,30.07,East,90,6.0,8.9,88,0.01,,,0.01,WUHU216HW,2013-01-24 09:09:00,
2013-01-24 01:14:00,49.5,46.4,30.06,ENE,68,7.6,8.7,89,0.01,,,0.01,WUHU216HW,2013-01-24 09:14:00,
2013-01-24 01:19:00,49.5,46.4,30.06,ENE,68,6.9,8.9,89,0.01,,,0.01,WUHU216HW,2013-01-24 09:19:00,
2013-01-24 01:24:00,49.7,46.5,30.06,ENE,68,5.4,8.9,89,0.00,,,0.01,WUHU216HW,2013-01-24 09:24:00,
2013-01-24 01:29:00,49.7,46.5,30.06,NE,45,5.6,8.3,89,0.00,,,0.01,WUHU216HW,2013-01-24 09:29:00,
2013-01-24 01:34:00,49.7,46.5,30.07,NNE,23,6.7,8.3,89,0.00,,,0.01,WUHU216HW,2013-01-24 09:34:00,
2013-01-24 01:39:00,49.9,46.7,30.07,East,90,5.8,7.6,89,0.00,,,0.01,WUHU216HW,2013-01-24 09:39:00,
2013-01-24 01:44:00,49.9,46.7,30.07,ENE,68,7.6,7.6,89,0.00,,,0.01,WUHU216HW,2013-01-24 09:44:00,
2013-01-24 01:49:00,49.9,46.7,30.07,NNE,23,3.6,7.6,89,0.00,,,0.01,WUHU216HW,2013-01-24 09:49:00,
2013-01-24 01:54:00,50.0,46.9,30.07,NNE,23,5.4,6.9,89,0.00,,,0.01,WUHU216HW,2013-01-24 09:54:00,
2013-01-24 01:59:00,50.0,46.9,30.08,North,0,3.6,6.9,89,0.00,,,0.01,WUHU216HW,2013-01-24 09:59:00,
2013-01-24 02:04:00,50.0,46.5,30.08,ENE,68,7.2,7.2,88,0.00,,,0.01,WUHU216HW,2013-01-24 10:04:00,
2013-01-24 02:09:00,50.0,46.9,30.08,ESE,113,6.9,8.9,89,0.00,,,0.01,WUHU216HW,2013-01-24 10:09:00,
2013-01-24 02:14:00,50.0,46.5,30.08,NE,45,7.2,8.9,88,0.00,,,0.01,WUHU216HW,2013-01-24 10:14:00,
2013-01-24 02:19:00,50.0,46.5,30.07,NNE,23,6.3,9.4,88,0.00,,,0.01,WUHU216HW,2013-01-24 10:19:00,
2013-01-24 02:24:00,50.0,46.5,30.07,NE,45,5.8,9.4,88,0.00,,,0.01,WUHU216HW,2013-01-24 10:24:00,
2013-01-24 02:29:00,50.0,46.5,30.06,East,90,6.5,9.2,88,0.00,,,0.01,WUHU216HW,2013-01-24 10:29:00,
2013-01-24 02:34:00,49.9,46.4,30.06,East,90,4.9,8.5,88,0.00,,,0.01,WUHU216HW,2013-01-24 10:34:00,
2013-01-24 02:39:00,49.9,46.4,30.06,ENE,68,3.4,7.6,88,0.00,,,0.01,WUHU216HW,2013-01-24 10:39:00,
2013-01-24 02:44:00,49.7,46.5,30.06,ENE,68,5.1,7.6,89,0.00,,,0.01,WUHU216HW,2013-01-24 10:44:00,
2013-01-24 02:50:00,49.7,46.5,30.06,ESE,113,5.6,6.3,89,0.00,,,0.01,WUHU216HW,2013-01-24 10:50:00,
2013-01-24 02:55:00,49.5,46.1,30.07,ESE,113,3.4,5.6,88,0.00,,,0.01,WUHU216HW,2013-01-24 10:55:00,
2013-01-24 03:00:00,49.5,46.4,30.07,East,90,4.9,7.4,89,0.00,,,0.01,WUHU216HW,2013-01-24 11:00:00,
2013-01-24 03:05:00,49.5,46.4,30.06,ENE,68,9.2,9.2,89,0.00,,,0.01,WUHU216HW,2013-01-24 11:05:00,
2013-01-24 03:10:00,49.3,46.2,30.06,ENE,68,6.3,9.8,89,0.00,,,0.01,WUHU216HW,2013-01-24 11:10:00,
2013-01-24 03:15:00,49.3,45.9,30.06,East,90,4.3,9.8,88,0.00,,,0.01,WUHU216HW,2013-01-24 11:15:00,
2013-01-24 03:20:00,49.3,46.5,30.06,ENE,68,4.0,6.7,90,0.00,,,0.01,WUHU216HW,2013-01-24 11:20:00,
2013-01-24 03:25:00,49.3,46.2,30.05,East,90,6.3,6.7,89,0.00,,,0.01,WUHU216HW,2013-01-24 11:25:00,
2013-01-24 03:30:00,49.3,46.2,30.06,East,90,4.7,6.3,89,0.00,,,0.01,WUHU216HW,2013-01-24 11:30:00,
2013-01-24 03:35:00,49.3,46.2,30.06,East,90,6.0,6.3,89,0.00,,,0.01,WUHU216HW,2013-01-24 11:35:00,
2013-01-24 03:40:00,49.3,46.2,30.05,East,90,6.0,6.3,89,0.00,,,0.01,WUHU216HW,2013-01-24 11:40:00,
2013-01-24 03:45:00,49.3,46.2,30.05,ENE,68,5.8,6.0,89,0.00,,,0.01,WUHU216HW,2013-01-24 11:45:00,
2013-01-24 03:50:00,49.3,45.9,30.05,East,90,3.1,5.8,88,0.00,,,0.01,WUHU216HW,2013-01-24 11:50:00,
2013-01-24 03:55:00,49.3,46.2,30.05,ESE,113,2.2,5.4,89,0.00,,,0.01,WUHU216HW,2013-01-24 11:55:00,
2013-01-24 04:00:00,49.3,46.2,30.06,East,90,3.8,3.8,89,0.00,,,0.01,WUHU216HW,2013-01-24 12:00:00,
2013-01-24 04:05:00,49.3,46.2,30.06,East,90,6.5,6.5,89,0.00,,,0.01,WUHU216HW,2013-01-24 12:05:00,
2013-01-24 04:10:00,49.3,46.2,30.06,ENE,68,4.0,6.5,89,0.00,,,0.01,WUHU216HW,2013-01-24 12:10:00,
2013-01-24 04:15:00,49.3,45.9,30.06,East,90,1.6,4.9,88,0.00,,,0.01,WUHU216HW,2013-01-24 12:15:00,
2013-01-24 04:20:00,49.3,45.9,30.07,ENE,68,2.2,4.5,88,0.00,,,0.01,WUHU216HW,2013-01-24 12:20:00,
2013-01-24 04:25:00,49.3,46.5,30.07,NNE,23,1.6,4.5,90,0.00,,,0.01,WUHU216HW,2013-01-24 12:25:00,
2013-01-24 04:30:00,49.5,46.7,30.07,NE,45,3.8,6.3,90,0.00,,,0.01,WUHU216HW,2013-01-24 12:30:00,
2013-01-24 04:35:00,49.7,46.8,30.07,ESE,113,4.7,6.3,90,0.00,,,0.01,WUHU216HW,2013-01-24 12:35:00,
2013-01-24 04:40:00,49.7,46.8,30.07,ESE,113,4.0,6.3,90,0.00,,,0.01,WUHU216HW,2013-01-24 12:40:00,
2013-01-24 04:45:00,49.7,46.8,30.07,ENE,68,5.4,5.8,90,0.00,,,0.01,WUHU216HW,2013-01-24 12:45:00,
2013-01-24 04:50:00,49.9,47.0,30.07,ESE,113,5.4,5.8,90,0.00,,,0.01,WUHU216HW,2013-01-24 12:50:00,
2013-01-24 04:55:00,49.9,47.0,30.07,East,90,6.0,6.0,90,0.00,,,0.01,WUHU216HW,2013-01-24 12:55:00,
2013-01-24 05:00:00,49.9,47.0,30.07,ESE,113,2.9,6.0,90,0.00,,,0.01,WUHU216HW,2013-01-24 13:00:00,
2013-01-24 05:05:00,49.9,46.7,30.07,East,90,3.4,5.6,89,0.00,,,0.01,WUHU216HW,2013-01-24 13:05:00,
2013-01-24 05:10:00,49.9,46.7,30.07,East,90,4.7,4.7,89,0.00,,,0.01,WUHU216HW,2013-01-24 13:10:00,
2013-01-24 05:15:00,49.9,46.7,30.07,East,90,4.3,4.7,89,0.00,,,0.01,WUHU216HW,2013-01-24 13:15:00,
2013-01-24 05:20:00,49.9,46.4,30.07,ESE,113,4.7,4.7,88,0.00,,,0.01,WUHU216HW,2013-01-24 13:20:00,
2013-01-24 05:25:00,49.9,46.7,30.08,ESE,113,5.4,6.5,89,0.00,,,0.01,WUHU216HW,2013-01-24 13:25:00,
2013-01-24 05:30:00,49.9,46.7,30.08,East,90,2.7,6.5,89,0.00,,,0.01,WUHU216HW,2013-01-24 13:30:00,
2013-01-24 05:35:00,49.9,46.7,30.08,ESE,113,4.0,5.4,89,0.00,,,0.01,WUHU216HW,2013-01-24 13:35:00,
2013-01-24 05:40:00,49.7,46.5,30.08,ESE,113,4.3,4.9,89,0.00,,,0.01,WUHU216HW,2013-01-24 13:40:00,
2013-01-24 05:45:00,49.7,46.5,30.08,ESE,113,4.3,4.9,89,0.00,,,0.01,WUHU216HW,2013-01-24 13:45:00,
2013-01-24 05:50:00,49.7,46.5,30.08,ESE,113,4.5,4.9,89,0.00,,,0.01,WUHU216HW,2013-01-24 13:50:00,
2013-01-24 05:55:00,49.7,46.5,30.08,ESE,113,4.5,5.4,89,0.00,,,0.01,WUHU216HW,2013-01-24 13:55:00,
2013-01-24 06:00:00,49.9,46.7,30.07,ESE,113,3.8,5.4,89,0.00,,,0.01,WUHU216HW,2013-01-24 14:00:00,
2013-01-24 06:05:00,50.0,46.9,30.07,ESE,113,5.4,5.6,89,0.00,,,0.01,WUHU216HW,2013-01-24 14:05:00,
2013-01-24 06:10:00,50.0,46.9,30.08,East,90,4.0,6.3,89,0.00,,,0.01,WUHU216HW,2013-01-24 14:10:00,
2013-01-24 06:15:00,50.0,46.9,30.08,ESE,113,6.0,6.3,89,0.00,,,0.01,WUHU216HW,2013-01-24 14:15:00,
2013-01-24 06:20:00,50.0,46.9,30.08,East,90,5.4,6.3,89,0.00,,,0.01,WUHU216HW,2013-01-24 14:20:00,
2013-01-24 06:25:00,50.2,47.1,30.08,East,90,7.8,8.5,89,0.00,,,0.01,WUHU216HW,2013-01-24 14:25:00,
2013-01-24 06:30:00,50.2,47.1,30.09,ENE,68,6.3,8.5,89,0.00,,,0.01,WUHU216HW,2013-01-24 14:30:00,
2013-01-24 06:35:00,50.2,47.1,30.08,ESE,113,4.9,7.8,89,0.00,,,0.01,WUHU216HW,2013-01-24 14:35:00,
2013-01-24 06:40:00,50.4,47.3,30.09,ESE,113,6.0,7.4,89,0.00,,,0.01,WUHU216HW,2013-01-24 14:40:00,
2013-01-24 06:45:00,50.4,47.3,30.09,East,90,4.9,7.8,89,0.00,,,0.01,WUHU216HW,2013-01-24 14:45:00,
2013-01-24 06:50:00,50.4,47.3,30.09,ENE,68,6.5,7.8,89,0.00,,,0.01,WUHU216HW,2013-01-24 14:50:00,
2013-01-24 06:55:00,50.4,47.3,30.08,ESE,113,5.8,8.7,89,0.00,,,0.01,WUHU216HW,2013-01-24 14:55:00,
2013-01-24 07:00:00,50.4,47.3,30.09,NE,45,4.0,8.7,89,0.00,,,0.01,WUHU216HW,2013-01-24 15:00:00,
2013-01-24 07:05:00,50.6,47.4,30.09,East,90,6.5,8.3,89,0.00,,,0.01,WUHU216HW,2013-01-24 15:05:00,
2013-01-24 07:10:00,50.6,47.4,30.09,ENE,68,7.8,8.3,89,0.00,,,0.01,WUHU216HW,2013-01-24 15:10:00,
2013-01-24 07:15:00,50.6,47.1,30.09,East,90,5.8,7.8,88,0.00,,,0.01,WUHU216HW,2013-01-24 15:15:00,
2013-01-24 07:20:00,50.6,47.1,30.09,East,90,6.0,7.8,88,0.00,,,0.01,WUHU216HW,2013-01-24 15:20:00,
2013-01-24 07:25:00,50.4,46.9,30.09,NE,45,7.8,7.8,88,0.00,,,0.01,WUHU216HW,2013-01-24 15:25:00,
2013-01-24 07:30:00,50.4,46.9,30.09,ENE,68,6.9,7.8,88,0.00,,,0.01,WUHU216HW,2013-01-24 15:30:00,
2013-01-24 07:35:00,50.2,46.7,30.10,NE,45,6.3,7.6,88,0.00,,,0.01,WUHU216HW,2013-01-24 15:35:00,
2013-01-24 07:40:00,50.2,46.7,30.09,ENE,68,5.4,8.5,88,0.00,,,0.01,WUHU216HW,2013-01-24 15:40:00,
2013-01-24 07:45:00,50.2,46.5,30.09,ENE,68,3.6,8.5,87,0.00,,,0.01,WUHU216HW,2013-01-24 15:45:00,
2013-01-24 07:50:00,50.0,46.3,30.10,ENE,68,4.0,8.5,87,0.00,,,0.01,WUHU216HW,2013-01-24 15:50:00,
2013-01-24 07:55:00,50.0,46.5,30.10,ENE,68,3.4,6.5,88,0.00,,,0.01,WUHU216HW,2013-01-24 15:55:00,
2013-01-24 08:00:00,50.0,46.5,30.10,NE,45,5.4,6.3,88,0.00,,,0.01,WUHU216HW,2013-01-24 16:00:00,
2013-01-24 08:05:00,50.0,46.5,30.10,ENE,68,6.5,6.5,88,0.00,,,0.01,WUHU216HW,2013-01-24 16:05:00,
2013-01-24 08:10:00,50.2,46.5,30.10,NE,45,5.1,8.1,87,0.00,,,0.01,WUHU216HW,2013-01-24 16:10:00,
2013-01-24 08:15:00,50.4,46.6,30.10,East,90,4.0,8.1,87,0.00,,,0.01,WUHU216HW,2013-01-24 16:15:00,
2013-01-24 08:20:00,50.4,46.6,30.10,East,90,3.6,6.7,87,0.00,,,0.01,WUHU216HW,2013-01-24 16:20:00,
2013-01-24 08:25:00,50.4,46.6,30.10,ESE,113,4.0,5.4,87,0.00,,,0.01,WUHU216HW,2013-01-24 16:25:00,
2013-01-24 08:30:00,50.6,46.8,30.10,East,90,3.6,6.3,87,0.00,,,0.01,WUHU216HW,2013-01-24 16:30:00,
2013-01-24 08:35:00,50.6,46.8,30.10,East,90,5.1,6.3,87,0.00,,,0.01,WUHU216HW,2013-01-24 16:35:00,
2013-01-24 08:41:00,50.8,47.3,30.10,ENE,68,3.8,5.1,88,0.00,,,0.01,WUHU216HW,2013-01-24 16:41:00,
2013-01-24 08:46:00,50.8,47.3,30.11,East,90,4.0,5.4,88,0.00,,,0.01,WUHU216HW,2013-01-24 16:46:00,
2013-01-24 08:51:00,50.9,47.4,30.12,ESE,113,1.8,5.4,88,0.00,,,0.01,WUHU216HW,2013-01-24 16:51:00,
2013-01-24 08:56:00,51.1,47.6,30.12,East,90,3.4,5.4,88,0.00,,,0.01,WUHU216HW,2013-01-24 16:56:00,
2013-01-24 09:01:00,51.1,47.4,30.12,ENE,68,6.3,6.3,87,0.00,,,0.01,WUHU216HW,2013-01-24 17:01:00,
2013-01-24 09:06:00,51.3,47.5,30.12,ENE,68,4.9,6.3,87,0.00,,,0.01,WUHU216HW,2013-01-24 17:06:00,
2013-01-24 09:11:00,51.5,47.7,30.12,ENE,68,3.6,4.9,87,0.00,,,0.01,WUHU216HW,2013-01-24 17:11:00,
2013-01-24 09:16:00,51.5,47.7,30.12,East,90,3.4,5.1,87,0.00,,,0.01,WUHU216HW,2013-01-24 17:16:00,
2013-01-24 09:21:00,51.5,47.7,30.13,NE,45,4.0,6.3,87,0.00,,,0.01,WUHU216HW,2013-01-24 17:21:00,
2013-01-24 09:26:00,51.8,48.1,30.13,ESE,113,4.7,6.3,87,0.00,,,0.01,WUHU216HW,2013-01-24 17:26:00,
2013-01-24 09:31:00,51.8,48.1,30.13,ENE,68,4.7,6.0,87,0.00,,,0.01,WUHU216HW,2013-01-24 17:31:00,
2013-01-24 09:36:00,51.8,48.1,30.13,East,90,6.3,6.3,87,0.00,,,0.01,WUHU216HW,2013-01-24 17:36:00,
2013-01-24 09:41:00,52.0,48.3,30.13,SE,135,4.7,6.3,87,0.00,,,0.01,WUHU216HW,2013-01-24 17:41:00,
2013-01-24 09:46:00,51.8,48.1,30.14,East,90,4.7,5.6,87,0.00,,,0.01,WUHU216HW,2013-01-24 17:46:00,
2013-01-24 09:51:00,51.8,48.1,30.14,East,90,3.1,5.8,87,0.00,,,0.01,WUHU216HW,2013-01-24 17:51:00,
2013-01-24 09:56:00,51.8,47.7,30.14,SE,135,3.6,5.8,86,0.00,,,0.01,WUHU216HW,2013-01-24 17:56:00,
2013-01-24 10:01:00,51.8,47.7,30.14,ESE,113,3.4,5.6,86,0.00,,,0.01,WUHU216HW,2013-01-24 18:01:00,
2013-01-24 10:06:00,51.8,47.7,30.14,East,90,1.3,5.6,86,0.00,,,0.01,WUHU216HW,2013-01-24 18:06:00,
2013-01-24 10:11:00,51.8,47.7,30.14,East,90,4.9,4.9,86,0.00,,,0.01,WUHU216HW,2013-01-24 18:11:00,
2013-01-24 10:16:00,51.8,47.7,30.15,ESE,113,3.1,4.9,86,0.00,,,0.01,WUHU216HW,2013-01-24 18:16:00,
2013-01-24 10:21:00,52.0,47.9,30.14,East,90,2.5,3.8,86,0.00,,,0.01,WUHU216HW,2013-01-24 18:21:00,
2013-01-24 10:26:00,52.2,48.1,30.15,ESE,113,0.9,2.9,86,0.00,,,0.01,WUHU216HW,2013-01-24 18:26:00,
2013-01-24 10:31:00,52.4,48.2,30.15,ESE,113,2.9,2.9,86,0.00,,,0.01,WUHU216HW,2013-01-24 18:31:00,
2013-01-24 10:36:00,52.6,48.4,30.15,East,90,2.5,2.9,86,0.00,,,0.01,WUHU216HW,2013-01-24 18:36:00,
2013-01-24 10:41:00,52.7,49.0,30.15,East,90,2.7,2.7,87,0.01,,,0.02,WUHU216HW,2013-01-24 18:41:00,
2013-01-24 10:46:00,52.9,49.2,30.15,ENE,68,2.5,3.4,87,0.02,,,0.03,WUHU216HW,2013-01-24 18:46:00,
2013-01-24 10:51:00,52.9,49.2,30.15,East,90,4.0,4.0,87,0.02,,,0.03,WUHU216HW,2013-01-24 18:51:00,
2013-01-24 10:56:00,52.9,49.2,30.15,ENE,68,2.2,4.0,87,0.02,,,0.03,WUHU216HW,2013-01-24 18:56:00,
2013-01-24 11:01:00,52.9,49.2,30.15,ENE,68,2.7,4.0,87,0.03,,,0.04,WUHU216HW,2013-01-24 19:01:00,
2013-01-24 11:06:00,52.9,49.4,30.15,East,90,2.0,3.6,88,0.03,,,0.04,WUHU216HW,2013-01-24 19:06:00,
2013-01-24 11:11:00,53.1,49.6,30.15,ENE,68,2.0,2.9,88,0.04,,,0.05,WUHU216HW,2013-01-24 19:11:00,
2013-01-24 11:16:00,53.3,49.8,30.14,East,90,3.4,3.4,88,0.04,,,0.05,WUHU216HW,2013-01-24 19:16:00,
2013-01-24 11:21:00,53.5,50.0,30.14,ENE,68,1.8,3.4,88,0.04,,,0.05,WUHU216HW,2013-01-24 19:21:00,
2013-01-24 11:26:00,53.6,50.1,30.14,ESE,113,2.0,2.0,88,0.05,,,0.06,WUHU216HW,2013-01-24 19:26:00,
2013-01-24 11:31:00,53.6,49.9,30.14,ENE,68,3.8,3.8,87,0.05,,,0.06,WUHU216HW,2013-01-24 19:31:00,
2013-01-24 11:36:00,53.8,50.1,30.14,ESE,113,2.9,3.8,87,0.04,,,0.06,WUHU216HW,2013-01-24 19:36:00,
2013-01-24 11:41:00,54.0,50.2,30.14,East,90,2.2,3.8,87,0.04,,,0.06,WUHU216HW,2013-01-24 19:41:00,
2013-01-24 11:46:00,54.0,50.2,30.14,ESE,113,2.9,3.4,87,0.03,,,0.06,WUHU216HW,2013-01-24 19:46:00,
2013-01-24 11:51:00,53.8,50.1,30.14,ESE,113,2.9,3.4,87,0.03,,,0.06,WUHU216HW,2013-01-24 19:51:00,
2013-01-24 11:56:00,53.8,50.1,30.14,SE,135,3.1,3.1,87,0.03,,,0.06,WUHU216HW,2013-01-24 19:56:00,
2013-01-24 12:01:00,53.8,50.1,30.13,East,90,2.5,3.6,87,0.03,,,0.07,WUHU216HW,2013-01-24 20:01:00,
2013-01-24 12:06:00,54.0,50.2,30.13,ESE,113,2.5,3.6,87,0.03,,,0.07,WUHU216HW,2013-01-24 20:06:00,
2013-01-24 12:11:00,54.0,50.2,30.12,ESE,113,3.4,3.4,87,0.02,,,0.07,WUHU216HW,2013-01-24 20:11:00,
2013-01-24 12:16:00,54.0,50.2,30.12,East,90,2.2,3.4,87,0.02,,,0.07,WUHU216HW,2013-01-24 20:16:00,
2013-01-24 12:21:00,54.0,50.2,30.12,ESE,113,2.9,3.4,87,0.02,,,0.07,WUHU216HW,2013-01-24 20:21:00,
2013-01-24 12:27:00,54.0,50.2,30.12,East,90,2.9,3.1,87,0.01,,,0.07,WUHU216HW,2013-01-24 20:27:00,
2013-01-24 12:32:00,54.2,50.4,30.12,East,90,1.6,3.1,87,0.01,,,0.07,WUHU216HW,2013-01-24 20:32:00,
2013-01-24 12:37:00,54.2,50.4,30.12,East,90,2.5,2.5,87,0.01,,,0.07,WUHU216HW,2013-01-24 20:37:00,
2013-01-24 12:42:00,54.2,50.4,30.12,ENE,68,2.7,3.1,87,0.02,,,0.08,WUHU216HW,2013-01-24 20:42:00,
2013-01-24 12:47:00,54.2,50.4,30.12,ENE,68,1.8,3.1,87,0.02,,,0.08,WUHU216HW,2013-01-24 20:47:00,
2013-01-24 12:52:00,54.4,50.2,30.11,ENE,68,0.9,2.2,86,0.02,,,0.08,WUHU216HW,2013-01-24 20:52:00,
2013-01-24 12:57:00,54.4,50.2,30.11,ENE,68,2.0,2.0,86,0.01,,,0.08,WUHU216HW,2013-01-24 20:57:00,
2013-01-24 13:02:00,54.2,50.0,30.11,East,90,3.1,3.6,86,0.01,,,0.08,WUHU216HW,2013-01-24 21:02:00,
2013-01-24 13:07:00,54.2,50.0,30.11,ESE,113,4.9,4.9,86,0.02,,,0.09,WUHU216HW,2013-01-24 21:07:00,
2013-01-24 13:12:00,54.0,49.9,30.11,East,90,3.8,4.9,86,0.02,,,0.09,WUHU216HW,2013-01-24 21:12:00,
2013-01-24 13:17:00,53.8,50.1,30.11,East,90,2.2,4.7,87,0.02,,,0.09,WUHU216HW,2013-01-24 21:17:00,
2013-01-24 13:22:00,53.6,49.5,30.11,ENE,68,3.8,3.8,86,0.03,,,0.10,WUHU216HW,2013-01-24 21:22:00,
2013-01-24 13:27:00,53.6,49.9,30.11,ENE,68,4.5,4.5,87,0.03,,,0.10,WUHU216HW,2013-01-24 21:27:00,
2013-01-24 13:32:00,53.5,49.7,30.11,North,0,0.0,4.5,87,0.03,,,0.10,WUHU216HW,2013-01-24 21:32:00,
2013-01-24 13:37:00,53.5,49.7,30.11,North,0,0.0,4.5,87,0.04,,,0.11,WUHU216HW,2013-01-24 21:37:00,
2013-01-24 13:42:00,53.3,49.8,30.11,North,0,0.0,0.0,88,0.03,,,0.11,WUHU216HW,2013-01-24 21:42:00,
2013-01-24 13:47:00,53.1,49.6,30.11,North,0,0.0,0.0,88,0.04,,,0.12,WUHU216HW,2013-01-24 21:47:00,
2013-01-24 13:52:00,52.9,49.4,30.11,North,0,0.0,0.0,88,0.05,,,0.13,WUHU216HW,2013-01-24 21:52:00,
2013-01-24 13:57:00,52.7,49.2,30.11,North,0,0.0,0.0,88,0.07,,,0.15,WUHU216HW,2013-01-24 21:57:00,
2013-01-24 14:02:00,52.6,49.1,30.10,North,0,0.0,0.0,88,0.07,,,0.15,WUHU216HW,2013-01-24 22:02:00,
2013-01-24 14:07:00,52.4,49.2,30.11,North,0,0.0,0.0,89,0.06,,,0.15,WUHU216HW,2013-01-24 22:07:00,
2013-01-24 14:12:00,52.2,49.1,30.11,North,0,0.0,0.0,89,0.08,,,0.17,WUHU216HW,2013-01-24 22:12:00,
2013-01-24 14:17:00,52.0,48.9,30.11,North,0,0.0,0.0,89,0.10,,,0.19,WUHU216HW,2013-01-24 22:17:00,
2013-01-24 14:22:00,51.8,49.0,30.11,North,0,0.0,0.0,90,0.09,,,0.19,WUHU216HW,2013-01-24 22:22:00,
2013-01-24 14:27:00,51.8,49.0,30.11,North,0,0.0,0.0,90,0.10,,,0.20,WUHU216HW,2013-01-24 22:27:00,
2013-01-24 14:32:00,51.7,48.5,30.11,North,0,0.0,0.0,89,0.12,,,0.22,WUHU216HW,2013-01-24 22:32:00,
2013-01-24 14:37:00,51.7,48.5,30.11,North,0,0.0,0.0,89,0.11,,,0.22,WUHU216HW,2013-01-24 22:37:00,
2013-01-24 14:42:00,51.5,48.6,30.11,North,0,0.0,0.0,90,0.13,,,0.24,WUHU216HW,2013-01-24 22:42:00,
2013-01-24 14:47:00,51.5,48.6,30.11,North,0,0.0,0.0,90,0.12,,,0.24,WUHU216HW,2013-01-24 22:47:00,
2013-01-24 14:52:00,51.5,48.6,30.11,North,0,0.0,0.0,90,0.14,,,0.27,WUHU216HW,2013-01-24 22:52:00,
2013-01-24 14:57:00,51.5,48.6,30.11,North,0,0.0,0.0,90,0.13,,,0.28,WUHU216HW,2013-01-24 22:57:00,
2013-01-24 15:02:00,51.5,48.6,30.11,North,0,0.0,0.0,90,0.14,,,0.29,WUHU216HW,2013-01-24 23:02:00,
2013-01-24 15:07:00,51.5,48.6,30.12,North,0,0.0,0.0,90,0.14,,,0.31,WUHU216HW,2013-01-24 23:07:00,
2013-01-24 15:12:00,51.3,48.4,30.12,North,0,0.0,0.0,90,0.15,,,0.32,WUHU216HW,2013-01-24 23:12:00,
2013-01-24 15:17:00,51.1,48.2,30.12,North,0,0.0,0.0,90,0.14,,,0.33,WUHU216HW,2013-01-24 23:17:00,
2013-01-24 15:22:00,50.9,48.3,30.12,North,0,0.0,0.0,91,0.15,,,0.34,WUHU216HW,2013-01-24 23:22:00,
2013-01-24 15:27:00,50.8,48.2,30.12,North,0,0.0,0.0,91,0.15,,,0.35,WUHU216HW,2013-01-24 23:27:00,
2013-01-24 15:32:00,50.8,48.2,30.12,North,0,0.0,0.0,91,0.15,,,0.37,WUHU216HW,2013-01-24 23:32:00,
2013-01-24 15:37:00,50.8,48.2,30.12,North,0,0.0,0.0,91,0.15,,,0.39,WUHU216HW,2013-01-24 23:37:00,
2013-01-24 15:42:00,50.8,48.2,30.12,North,0,0.0,0.0,91,0.16,,,0.40,WUHU216HW,2013-01-24 23:42:00,
2013-01-24 15:47:00,50.8,48.2,30.12,North,0,0.0,0.0,91,0.15,,,0.41,WUHU216HW,2013-01-24 23:47:00,
2013-01-24 15:52:00,50.8,48.2,30.12,North,0,0.0,0.0,91,0.16,,,0.43,WUHU216HW,2013-01-24 23:52:00,
2013-01-24 15:57:00,50.8,48.2,30.12,North,0,0.0,0.0,91,0.16,,,0.44,WUHU216HW,2013-01-24 23:57:00,
2013-01-24 16:02:00,50.8,48.2,30.12,NE,45,2.0,2.0,91,0.15,,,0.45,WUHU216HW,2013-01-25 00:02:00,
2013-01-24 16:07:00,50.8,48.2,30.12,NE,45,2.0,2.0,91,0.15,,,0.46,WUHU216HW,2013-01-25 00:07:00,
2013-01-24 16:12:00,50.8,48.2,30.12,NE,45,1.1,2.0,91,0.15,,,0.47,WUHU216HW,2013-01-25 00:12:00,
2013-01-24 16:17:00,50.8,48.2,30.12,East,90,0.9,1.1,91,0.14,,,0.48,WUHU216HW,2013-01-25 00:17:00,
2013-01-24 16:22:00,50.8,48.2,30.12,North,0,0.0,1.1,91,0.13,,,0.48,WUHU216HW,2013-01-25 00:22:00,
2013-01-24 16:27:00,50.9,48.3,30.12,North,0,0.0,0.9,91,0.13,,,0.49,WUHU216HW,2013-01-25 00:27:00,
2013-01-24 16:32:00,50.9,48.1,30.12,North,0,0.0,0.0,90,0.12,,,0.50,WUHU216HW,2013-01-25 00:32:00,
2013-01-24 16:37:00,51.1,48.2,30.13,North,0,0.0,0.0,90,0.11,,,0.50,WUHU216HW,2013-01-25 00:37:00,
2013-01-24 16:42:00,51.1,48.2,30.12,North,0,0.0,0.0,90,0.10,,,0.51,WUHU216HW,2013-01-25 00:42:00,
2013-01-24 16:47:00,51.1,48.2,30.12,North,0,0.0,0.0,90,0.09,,,0.51,WUHU216HW,2013-01-25 00:47:00,
2013-01-24 16:52:00,50.9,48.1,30.13,North,0,0.0,0.0,90,0.08,,,0.51,WUHU216HW,2013-01-25 00:52:00,
2013-01-24 16:57:00,50.9,48.1,30.12,North,0,0.0,0.0,90,0.06,,,0.51,WUHU216HW,2013-01-25 00:57:00,
2013-01-24 17:02:00,50.9,48.1,30.12,North,0,0.0,0.0,90,0.07,,,0.52,WUHU216HW,2013-01-25 01:02:00,
2013-01-24 17:07:00,50.9,48.1,30.13,North,0,0.0,0.0,90,0.06,,,0.52,WUHU216HW,2013-01-25 01:07:00,
2013-01-24 17:12:00,50.9,48.1,30.13,North,0,0.0,0.0,90,0.05,,,0.52,WUHU216HW,2013-01-25 01:12:00,
2013-01-24 17:17:00,50.8,47.9,30.13,North,0,0.0,0.0,90,0.04,,,0.52,WUHU216HW,2013-01-25 01:17:00,
2013-01-24 17:22:00,50.8,47.9,30.13,North,0,0.0,0.0,90,0.03,,,0.52,WUHU216HW,2013-01-25 01:22:00,
2013-01-24 17:27:00,50.8,47.9,30.13,North,0,0.0,0.0,90,0.03,,,0.52,WUHU216HW,2013-01-25 01:27:00,
2013-01-24 17:32:00,50.8,47.9,30.13,North,0,0.0,0.0,90,0.03,,,0.53,WUHU216HW,2013-01-25 01:32:00,
2013-01-24 17:37:00,50.8,47.9,30.13,North,0,0.0,0.0,90,0.03,,,0.53,WUHU216HW,2013-01-25 01:37:00,
2013-01-24 17:42:00,50.8,47.9,30.13,SE,135,0.0,0.4,90,0.02,,,0.53,WUHU216HW,2013-01-25 01:42:00,
2013-01-24 17:47:00,50.6,47.7,30.14,SE,135,0.0,0.4,90,0.02,,,0.53,WUHU216HW,2013-01-25 01:47:00,
2013-01-24 17:52:00,50.6,47.7,30.14,SE,135,0.0,0.0,90,0.02,,,0.53,WUHU216HW,2013-01-25 01:52:00,
2013-01-24 17:57:00,50.6,47.7,30.14,SE,135,0.0,0.0,90,0.03,,,0.54,WUHU216HW,2013-01-25 01:57:00,
2013-01-24 18:02:00,50.6,47.7,30.14,SE,135,0.0,0.2,90,0.02,,,0.54,WUHU216HW,2013-01-25 02:02:00,
2013-01-24 18:07:00,50.6,47.7,30.14,SE,135,0.4,0.4,90,0.02,,,0.54,WUHU216HW,2013-01-25 02:07:00,
2013-01-24 18:12:00,50.6,47.7,30.14,SE,135,0.4,0.9,90,0.02,,,0.54,WUHU216HW,2013-01-25 02:12:00,
2013-01-24 18:17:00,50.4,47.5,30.14,SE,135,0.0,0.9,90,0.02,,,0.54,WUHU216HW,2013-01-25 02:17:00,
2013-01-24 18:22:00,50.4,47.5,30.14,SE,135,0.0,0.9,90,0.02,,,0.54,WUHU216HW,2013-01-25 02:22:00,
2013-01-24 18:27:00,50.4,47.5,30.14,SE,135,0.0,0.0,90,0.03,,,0.55,WUHU216HW,2013-01-25 02:27:00,
2013-01-24 18:32:00,50.4,47.5,30.14,SE,135,0.0,0.0,90,0.02,,,0.55,WUHU216HW,2013-01-25 02:32:00,
2013-01-24 18:37:00,50.4,47.5,30.14,SE,135,0.0,0.0,90,0.02,,,0.55,WUHU216HW,2013-01-25 02:37:00,
2013-01-24 18:42:00,50.4,47.5,30.14,SE,135,0.0,0.0,90,0.02,,,0.55,WUHU216HW,2013-01-25 02:42:00,
2013-01-24 18:47:00,50.2,47.3,30.15,SE,135,0.0,0.0,90,0.02,,,0.55,WUHU216HW,2013-01-25 02:47:00,
2013-01-24 18:52:00,50.2,47.3,30.15,SE,135,0.0,0.0,90,0.02,,,0.55,WUHU216HW,2013-01-25 02:52:00,
2013-01-24 18:57:00,50.2,47.3,30.15,SE,135,0.0,0.0,90,0.01,,,0.55,WUHU216HW,2013-01-25 02:57:00,
2013-01-24 19:02:00,50.2,47.3,30.15,SE,135,0.0,0.0,90,0.01,,,0.55,WUHU216HW,2013-01-25 03:02:00,
2013-01-24 19:07:00,50.2,47.3,30.15,SE,135,0.0,0.0,90,0.01,,,0.55,WUHU216HW,2013-01-25 03:07:00,
2013-01-24 19:12:00,50.2,47.3,30.15,SE,135,0.0,0.0,90,0.02,,,0.56,WUHU216HW,2013-01-25 03:12:00,
2013-01-24 19:17:00,50.0,47.2,30.15,SE,135,0.0,0.0,90,0.02,,,0.56,WUHU216HW,2013-01-25 03:17:00,
2013-01-24 19:22:00,50.0,47.2,30.15,SE,135,0.0,0.0,90,0.02,,,0.56,WUHU216HW,2013-01-25 03:22:00,
2013-01-24 19:29:00,50.0,47.2,30.15,SE,135,0.0,0.0,90,0.01,,,0.56,WUHU216HW,2013-01-25 03:29:00,
2013-01-24 19:34:00,50.0,47.2,30.15,SE,135,0.0,0.0,90,0.01,,,0.56,WUHU216HW,2013-01-25 03:34:00,
2013-01-24 19:39:00,50.0,47.2,30.15,SSE,158,1.1,1.1,90,0.02,,,0.57,WUHU216HW,2013-01-25 03:39:00,
2013-01-24 19:44:00,50.0,47.2,30.15,SSW,203,0.4,1.1,90,0.02,,,0.57,WUHU216HW,2013-01-25 03:44:00,
2013-01-24 19:49:00,50.0,47.2,30.15,SSW,203,0.7,1.1,90,0.02,,,0.57,WUHU216HW,2013-01-25 03:49:00,
2013-01-24 19:54:00,50.0,47.2,30.15,SSW,203,0.0,0.7,90,0.02,,,0.57,WUHU216HW,2013-01-25 03:54:00,
2013-01-24 19:59:00,50.0,47.2,30.15,SSW,203,0.0,0.4,90,0.02,,,0.57,WUHU216HW,2013-01-25 03:59:00,
2013-01-24 20:04:00,50.0,47.2,30.16,SSW,203,0.0,0.0,90,0.02,,,0.57,WUHU216HW,2013-01-25 04:04:00,
2013-01-24 20:09:00,50.0,47.2,30.16,SSW,203,0.0,0.4,90,0.02,,,0.57,WUHU216HW,2013-01-25 04:09:00,
2013-01-24 20:14:00,50.0,47.2,30.16,SSW,203,0.0,0.4,90,0.01,,,0.57,WUHU216HW,2013-01-25 04:14:00,
2013-01-24 20:19:00,50.0,47.2,30.16,SSW,203,0.0,0.0,90,0.01,,,0.57,WUHU216HW,2013-01-25 04:19:00,
2013-01-24 20:24:00,50.0,47.2,30.16,SSW,203,0.0,0.0,90,0.01,,,0.57,WUHU216HW,2013-01-25 04:24:00,
2013-01-24 20:29:00,50.0,47.2,30.16,SSW,203,0.0,0.0,90,0.01,,,0.57,WUHU216HW,2013-01-25 04:29:00,
2013-01-24 20:34:00,50.0,47.2,30.16,SSW,203,0.0,0.0,90,0.02,,,0.58,WUHU216HW,2013-01-25 04:34:00,
2013-01-24 20:39:00,50.0,47.2,30.16,SSW,203,0.0,0.0,90,0.01,,,0.58,WUHU216HW,2013-01-25 04:39:00,
2013-01-24 20:44:00,50.0,47.2,30.16,SE,135,0.4,0.4,90,0.01,,,0.58,WUHU216HW,2013-01-25 04:44:00,
2013-01-24 20:49:00,50.2,47.3,30.16,SE,135,0.0,0.4,90,0.01,,,0.58,WUHU216HW,2013-01-25 04:49:00,
2013-01-24 20:54:00,50.0,47.2,30.16,SE,135,0.0,0.0,90,0.01,,,0.58,WUHU216HW,2013-01-25 04:54:00,
2013-01-24 20:59:00,50.2,47.3,30.16,SE,135,0.0,0.0,90,0.01,,,0.58,WUHU216HW,2013-01-25 04:59:00,
2013-01-24 21:00:00,50.2,47.3,30.16,SE,135,0.0,0.0,90,0.01,,,0.58,WUHU216HW,2013-01-25 05:00:00,
2013-01-24 21:01:00,50.2,47.3,30.16,SE,135,0.0,0.0,90,0.01,,,0.58,WUHU216HW,2013-01-25 05:01:00,
2013-01-24 21:02:00,50.2,47.3,30.16,SE,135,0.0,0.0,90,0.01,,,0.58,WUHU216HW,2013-01-25 05:02:00,
2013-01-24 21:07:00,50.2,47.3,30.16,SE,135,1.1,1.1,90,0.01,,,0.58,WUHU216HW,2013-01-25 05:07:00,
2013-01-24 21:12:00,50.2,47.3,30.17,SE,135,1.1,1.3,90,0.01,,,0.58,WUHU216HW,2013-01-25 05:12:00,
2013-01-24 21:17:00,50.2,47.3,30.16,ESE,113,1.1,1.3,90,0.01,,,0.58,WUHU216HW,2013-01-25 05:17:00,
2013-01-24 21:22:00,50.2,47.3,30.17,ESE,113,1.1,1.1,90,0.01,,,0.58,WUHU216HW,2013-01-25 05:22:00,
2013-01-24 21:27:00,50.2,47.3,30.16,ESE,113,0.2,1.1,90,0.01,,,0.58,WUHU216HW,2013-01-25 05:27:00,
2013-01-24 21:32:00,50.2,47.3,30.16,ESE,113,0.0,1.1,90,0.00,,,0.58,WUHU216HW,2013-01-25 05:32:00,
2013-01-24 21:37:00,50.2,47.6,30.16,ESE,113,0.0,0.0,91,0.00,,,0.58,WUHU216HW,2013-01-25 05:37:00,
2013-01-24 21:42:00,50.2,47.6,30.16,ESE,113,0.0,0.0,91,0.00,,,0.58,WUHU216HW,2013-01-25 05:42:00,
2013-01-24 21:47:00,50.4,47.5,30.16,ESE,113,0.0,0.0,90,0.00,,,0.58,WUHU216HW,2013-01-25 05:47:00,
2013-01-24 21:53:00,50.2,47.3,30.16,ESE,113,0.0,0.0,90,0.00,,,0.58,WUHU216HW,2013-01-25 05:53:00,
2013-01-24 21:58:00,50.2,47.3,30.17,ESE,113,0.9,0.9,90,0.00,,,0.58,WUHU216HW,2013-01-25 05:58:00,
2013-01-24 22:03:00,50.2,47.6,30.17,ESE,113,0.0,0.9,91,0.00,,,0.58,WUHU216HW,2013-01-25 06:03:00,
2013-01-24 22:08:00,50.2,47.6,30.17,ESE,113,0.0,0.7,91,0.00,,,0.58,WUHU216HW,2013-01-25 06:08:00,
2013-01-24 22:13:00,50.2,47.6,30.17,ESE,113,0.0,0.0,91,0.00,,,0.58,WUHU216HW,2013-01-25 06:13:00,
2013-01-24 22:18:00,50.2,47.6,30.17,ESE,113,0.0,0.0,91,0.00,,,0.58,WUHU216HW,2013-01-25 06:18:00,
2013-01-24 22:23:00,50.2,47.3,30.17,ESE,113,0.0,0.0,90,0.00,,,0.58,WUHU216HW,2013-01-25 06:23:00,
2013-01-24 22:28:00,50.2,47.6,30.17,ESE,113,0.0,0.0,91,0.00,,,0.58,WUHU216HW,2013-01-25 06:28:00,
2013-01-24 22:33:00,50.2,47.3,30.17,ESE,113,0.0,0.0,90,0.00,,,0.58,WUHU216HW,2013-01-25 06:33:00,
2013-01-24 22:38:00,50.2,47.6,30.17,ESE,113,0.0,0.0,91,0.00,,,0.58,WUHU216HW,2013-01-25 06:38:00,
2013-01-24 22:43:00,50.2,47.6,30.17,ESE,113,0.0,0.0,91,0.00,,,0.58,WUHU216HW,2013-01-25 06:43:00,
2013-01-24 22:48:00,50.2,47.6,30.17,ESE,113,0.0,0.0,91,0.00,,,0.58,WUHU216HW,2013-01-25 06:48:00,
2013-01-24 22:53:00,50.2,47.6,30.17,ESE,113,0.0,0.0,91,0.00,,,0.58,WUHU216HW,2013-01-25 06:53:00,
2013-01-24 22:58:00,50.2,47.6,30.17,ESE,113,0.0,0.0,91,0.00,,,0.58,WUHU216HW,2013-01-25 06:58:00,
2013-01-24 23:03:00,50.2,47.6,30.17,ESE,113,0.0,0.0,91,0.00,,,0.58,WUHU216HW,2013-01-25 07:03:00,
2013-01-24 23:08:00,50.4,47.8,30.17,ESE,113,0.9,0.9,91,0.00,,,0.58,WUHU216HW,2013-01-25 07:08:00,
2013-01-24 23:13:00,50.4,47.8,30.17,WNW,293,1.1,1.6,91,0.00,,,0.58,WUHU216HW,2013-01-25 07:13:00,
2013-01-24 23:18:00,50.4,47.8,30.17,WNW,293,0.2,1.6,91,0.00,,,0.58,WUHU216HW,2013-01-25 07:18:00,
2013-01-24 23:23:00,50.6,48.0,30.18,WNW,293,0.0,1.1,91,0.00,,,0.58,WUHU216HW,2013-01-25 07:23:00,
2013-01-24 23:28:00,50.8,48.2,30.18,WNW,293,0.0,0.2,91,0.00,,,0.58,WUHU216HW,2013-01-25 07:28:00,
2013-01-24 23:33:00,50.8,48.2,30.18,West,270,0.9,0.9,91,0.00,,,0.58,WUHU216HW,2013-01-25 07:33:00,
2013-01-24 23:38:00,50.8,48.2,30.18,West,270,0.7,0.9,91,0.00,,,0.58,WUHU216HW,2013-01-25 07:38:00,
2013-01-24 23:43:00,50.8,48.2,30.18,SSE,158,0.4,1.1,91,0.00,,,0.58,WUHU216HW,2013-01-25 07:43:00,
2013-01-24 23:48:00,50.8,48.2,30.18,South,180,0.7,1.6,91,0.00,,,0.58,WUHU216HW,2013-01-25 07:48:00,
2013-01-24 23:53:00,50.8,48.2,30.18,SSW,203,0.0,1.6,91,0.00,,,0.58,WUHU216HW,2013-01-25 07:53:00,
2013-01-24 23:58:00,50.8,48.2,30.18,SW,225,0.7,1.1,91,0.00,,,0.58,WUHU216HW,2013-01-25 07:58:00,